DW1024 Weather Reports


Display with metric or nautical units.
time (UTC)temp
F
wind
direction
speed
MPH
gust
MPH
rain 1hr
in
rain 24hr
in
rain mn
in
humidity
%
barometer
mb
20260905150301 74 309 3.0 10.0 0.00 0.17 0.17 65 1024.2
20260905144807 74 267 3.0 9.0 0.00 0.17 0.17 64 1024.2
20260905143301 73 236 3.0 8.0 0.00 0.17 0.17 66 1024.2
20260905141801 73 242 3.0 8.0 0.00 0.17 0.17 66 1024.2
20260905140301 73 213 3.0 8.0 0.00 0.17 0.17 64 1024.3
20260905134802 73 298 4.0 11.0 0.00 0.17 0.17 63 1024.5
20260905133755 72 213 3.0 10.0 0.00 0.17 0.17 68 1024.6
20260905133114 72 221 3.0 9.0 0.00 0.17 0.17 70 1024.8
20260905130308 70 216 3.0 10.0 0.00 0.17 0.17 72 1024.8
20260905124805 70 204 4.0 9.0 0.00 0.17 0.17 73 1024.8
20260905123303 69 313 4.0 11.0 0.00 0.17 0.17 77 1024.7
20260905121803 67 231 3.0 8.0 0.00 0.17 0.17 82 1024.8
20260905120302 66 329 3.0 9.0 0.00 0.17 0.17 83 1024.7
20260905114803 66 254 2.0 7.0 0.00 0.17 0.17 84 1024.7
20260905113304 65 264 2.0 7.0 0.00 0.17 0.17 85 1024.7
20260905111803 65 229 2.0 6.0 0.00 0.17 0.17 85 1024.8
20260905110304 65 194 2.0 8.0 0.00 0.17 0.17 88 1024.4
20260905104803 64 119 2.0 6.0 0.00 0.17 0.17 89 1024.5
20260905101804 62 218 1.0 4.0 0.01 0.17 0.17 90 1024.5
20260905100304 62 161 1.0 4.0 0.01 0.17 0.17 90 1024.6
20260905094804 62 159 0.0 3.0 0.01 0.17 0.17 90 1024.3
20260905090304 62 248 1.0 4.0 0.00 0.16 0.16 88 1024.2
20260905084801 62 229 1.0 2.0 0.00 0.16 0.16 88 1024.1
20260905083302 62 259 0.0 2.0 0.00 0.16 0.16 89 1024.1
20260905081804 61 226 0.0 2.0 0.00 0.16 0.16 88 1024.2
20260905080303 62 226 0.0 2.0 0.00 0.16 0.16 89 1024.1
20260905074803 61 226 0.0 1.0 0.00 0.16 0.16 91 1024.1
20260905073302 61 226 1.0 2.0 0.00 0.16 0.16 92 1023.9
20260905070305 60 255 0.0 1.0 0.01 0.16 0.16 93 1023.9
20260905064803 60 255 0.0 3.0 0.04 0.16 0.16 93 1023.9
20260905063305 59 157 1.0 3.0 0.04 0.16 0.16 92 1023.3
20260905061803 60 200 0.0 3.0 0.04 0.16 0.16 92 1023.0
20260905054811 60 59 0.0 1.0 0.01 0.12 0.12 91 1023.1
20260905053301 60 59 0.0 2.0 0.03 0.12 0.12 90 1023.0
20260905051805 60 59 0.0 1.0 0.12 0.12 0.12 91 1023.0
20260905050302 60 59 0.0 2.0 0.11 0.11 0.11 89 1022.9
20260905043303 63 38 2.0 4.0 0.09 0.09 0.02 75 1022.3
20260905040305 65 159 2.0 5.0 0.00 0.00 0.00 65 1021.6
20260905033302 66 84 3.0 9.0 0.00 0.00 0.00 65 1020.6
20260905030304 67 189 3.0 10.0 0.00 0.00 0.00 68 1020.1
20260905024805 71 188 2.0 7.0 0.00 0.00 0.00 67 1019.5
20260905023313 72 284 2.0 7.0 0.00 0.00 0.00 66 1019.2
20260905021802 72 269 1.0 8.0 0.00 0.00 0.00 66 1019.1
20260905020306 71 271 2.0 4.0 0.00 0.00 0.00 66 1019.0
20260905014803 72 234 2.0 6.0 0.00 0.00 0.00 65 1019.0
20260905013305 72 248 0.0 4.0 0.00 0.00 0.00 65 1018.8
20260905011812 72 300 1.0 4.0 0.00 0.00 0.00 64 1018.9
20260905010304 73 206 1.0 6.0 0.00 0.00 0.00 63 1018.8
20260905004805 74 275 2.0 9.0 0.00 0.00 0.00 61 1018.7
20260905003303 74 250 2.0 7.0 0.00 0.00 0.00 61 1018.8
20260905001804 73 229 2.0 7.0 0.00 0.00 0.00 61 1018.6
20260905000304 74 244 2.0 6.0 0.00 0.00 0.00 60 1018.3
20260904234801 74 265 2.0 6.0 0.00 0.00 0.00 60 1018.2
20260904233303 75 193 2.0 7.0 0.00 0.00 0.00 59 1018.2
20260904231803 75 218 3.0 10.0 0.00 0.00 0.00 58 1018.2
20260904230302 75 233 3.0 8.0 0.00 0.00 0.00 57 1018.2
20260904223300 75 290 2.0 4.0 0.00 0.00 0.00 57 1018.1
20260904221801 75 167 2.0 5.0 0.00 0.00 0.00 55 1017.9
20260904214804 76 202 3.0 10.0 0.00 0.00 0.00 54 1017.8
20260904213300 76 209 2.0 8.0 0.00 0.00 0.00 54 1017.7
20260904211801 76 218 2.0 7.0 0.00 0.00 0.00 53 1017.6
20260904210305 76 307 3.0 8.0 0.00 0.00 0.00 53 1017.7
20260904204801 76 276 2.0 6.0 0.00 0.00 0.00 53 1017.6
20260904203300 76 249 2.0 7.0 0.00 0.00 0.00 53 1017.6
20260904201801 74 234 1.0 4.0 0.00 0.00 0.00 54 1017.4
20260904200259 74 257 1.0 3.0 0.00 0.00 0.00 54 1017.4
20260904194759 74 242 1.0 5.0 0.00 0.00 0.00 54 1017.3
20260904193302 75 234 1.0 4.0 0.00 0.00 0.00 53 1017.3
20260904184759 77 255 1.0 4.0 0.00 0.00 0.00 50 1017.3
20260904183256 77 242 2.0 7.0 0.00 0.00 0.00 49 1017.0
20260904181756 78 214 1.0 3.0 0.00 0.00 0.00 48 1016.9
20260904180300 79 225 1.0 7.0 0.00 0.00 0.00 46 1016.8
20260904173257 81 236 3.0 9.0 0.00 0.00 0.00 44 1016.3
20260904171756 82 233 3.0 8.0 0.00 0.00 0.00 42 1016.2
20260904170259 83 286 4.0 12.0 0.00 0.00 0.00 40 1016.2
20260904164757 84 284 4.0 13.0 0.00 0.00 0.00 39 1016.2
20260904163259 85 267 4.0 11.0 0.00 0.00 0.00 37 1016.1
20260904161758 86 93 5.0 16.0 0.00 0.00 0.00 36 1016.3
20260904160256 87 283 4.0 14.0 0.00 0.00 0.00 35 1016.3
20260904154758 87 234 4.0 13.0 0.00 0.00 0.00 36 1016.5
20260904153258 88 236 5.0 13.0 0.00 0.00 0.00 35 1016.6